Time,TemperatureF,DewpointF,PressureIn,WindDirection,WindDirectionDegrees,WindSpeedMPH,WindSpeedGustMPH,Humidity,HourlyPrecipIn,Conditions,Clouds,dailyrainin,SoftwareType,DateUTC
2013-04-09 00:00:00,60.0,49.8,29.42,ESE,111,13.0,21.0,69,0.00,,,0.00,VWS V14.00,2013-04-09 04:00:00,
2013-04-09 00:05:00,60.0,49.8,29.42,East,97,13.0,21.0,69,0.00,,,0.00,VWS V14.00,2013-04-09 04:05:00,
2013-04-09 00:10:00,59.9,49.7,29.42,SE,132,8.0,17.0,69,0.00,,,0.00,VWS V14.00,2013-04-09 04:10:00,
2013-04-09 00:15:00,59.9,49.7,29.42,East,89,16.0,17.0,69,0.00,,,0.00,VWS V14.00,2013-04-09 04:15:00,
2013-04-09 00:20:00,59.9,49.7,29.42,SE,130,6.0,18.0,69,0.00,,,0.00,VWS V14.00,2013-04-09 04:20:00,
2013-04-09 00:25:00,59.9,50.1,29.42,East,91,8.0,18.0,70,0.00,,,0.00,VWS V14.00,2013-04-09 04:25:00,
2013-04-09 00:30:00,59.9,50.1,29.43,ENE,65,8.0,18.0,70,0.00,,,0.00,VWS V14.00,2013-04-09 04:30:00,
2013-04-09 00:31:00,60.0,49.8,29.42,East,84,6.0,18.0,69,0.00,,,0.00,VWS V14.00,2013-04-09 04:31:00,
2013-04-09 00:35:00,59.9,50.1,29.43,ENE,65,8.0,18.0,70,0.00,,,0.00,VWS V14.00,2013-04-09 04:35:00,
2013-04-09 00:40:00,59.7,49.9,29.42,East,89,8.0,14.0,70,0.00,,,0.00,VWS V14.00,2013-04-09 04:40:00,
2013-04-09 00:45:00,59.7,49.9,29.42,East,94,7.0,14.0,70,0.00,,,0.00,VWS V14.00,2013-04-09 04:45:00,
2013-04-09 00:51:00,59.6,49.8,29.43,East,89,7.0,14.0,70,0.00,,,0.00,VWS V14.00,2013-04-09 04:51:00,
2013-04-09 00:56:00,59.5,49.7,29.43,ESE,106,7.0,14.0,70,0.00,,,0.00,VWS V14.00,2013-04-09 04:56:00,
2013-04-09 01:00:00,59.5,50.1,29.43,East,89,7.0,14.0,71,0.00,,,0.00,VWS V14.00,2013-04-09 05:00:00,
2013-04-09 01:01:00,59.4,50.0,29.43,East,94,4.0,14.0,71,0.00,,,0.00,VWS V14.00,2013-04-09 05:01:00,
2013-04-09 01:06:00,59.5,50.1,29.43,East,79,6.0,7.0,71,0.00,,,0.00,VWS V14.00,2013-04-09 05:06:00,
2013-04-09 01:11:00,59.6,49.8,29.43,East,84,7.0,11.0,70,0.00,,,0.00,VWS V14.00,2013-04-09 05:11:00,
2013-04-09 01:16:00,59.7,50.3,29.43,East,99,9.0,15.0,71,0.00,,,0.00,VWS V14.00,2013-04-09 05:16:00,
2013-04-09 01:21:00,59.6,50.2,29.43,ESE,107,5.0,15.0,71,0.00,,,0.00,VWS V14.00,2013-04-09 05:21:00,
2013-04-09 01:26:00,59.5,50.1,29.43,ESE,110,4.0,15.0,71,0.00,,,0.00,VWS V14.00,2013-04-09 05:26:00,
2013-04-09 01:30:00,59.5,50.1,29.43,ESE,117,5.0,15.0,71,0.00,,,0.00,VWS V14.00,2013-04-09 05:30:00,
2013-04-09 01:31:00,59.4,50.0,29.43,East,101,8.0,15.0,71,0.00,,,0.00,VWS V14.00,2013-04-09 05:31:00,
2013-04-09 01:36:00,59.5,50.1,29.43,ESE,112,4.0,5.0,71,0.00,,,0.00,VWS V14.00,2013-04-09 05:36:00,
2013-04-09 01:41:00,59.4,50.0,29.43,ESE,110,5.0,10.0,71,0.00,,,0.00,VWS V14.00,2013-04-09 05:41:00,
2013-04-09 01:46:00,59.5,50.1,29.44,ESE,121,3.0,10.0,71,0.00,,,0.00,VWS V14.00,2013-04-09 05:46:00,
2013-04-09 01:51:00,59.5,50.1,29.43,ESE,113,6.0,10.0,71,0.00,,,0.00,VWS V14.00,2013-04-09 05:51:00,
2013-04-09 01:56:00,59.5,50.1,29.43,ESE,109,4.0,10.0,71,0.00,,,0.00,VWS V14.00,2013-04-09 05:56:00,
2013-04-09 02:00:00,59.4,50.0,29.43,ESE,121,2.0,10.0,71,0.00,,,0.00,VWS V14.00,2013-04-09 06:00:00,
2013-04-09 02:01:00,59.5,50.5,29.43,SE,134,4.0,10.0,72,0.00,,,0.00,VWS V14.00,2013-04-09 06:01:00,
2013-04-09 02:06:00,59.4,50.0,29.43,SE,131,3.0,3.0,71,0.00,,,0.00,VWS V14.00,2013-04-09 06:06:00,
2013-04-09 02:11:00,59.1,50.1,29.43,ESE,113,2.0,5.0,72,0.00,,,0.00,VWS V14.00,2013-04-09 06:11:00,
2013-04-09 02:16:00,58.9,50.3,29.43,East,98,5.0,7.0,73,0.00,,,0.00,VWS V14.00,2013-04-09 06:16:00,
2013-04-09 02:21:00,58.8,50.2,29.42,East,96,1.0,7.0,73,0.00,,,0.00,VWS V14.00,2013-04-09 06:21:00,
2013-04-09 02:27:00,58.5,49.9,29.42,SE,126,2.0,7.0,73,0.00,,,0.00,VWS V14.00,2013-04-09 06:27:00,
2013-04-09 02:30:00,58.1,49.9,29.42,ENE,73,0.0,7.0,74,0.00,,,0.00,VWS V14.00,2013-04-09 06:30:00,
2013-04-09 02:32:00,58.3,50.1,29.42,ENE,75,0.0,7.0,74,0.00,,,0.00,VWS V14.00,2013-04-09 06:32:00,
2013-04-09 02:37:00,58.1,50.2,29.42,ENE,73,1.0,1.0,75,0.00,,,0.00,VWS V14.00,2013-04-09 06:37:00,
2013-04-09 02:42:00,58.1,50.2,29.42,SW,228,1.0,1.0,75,0.00,,,0.00,VWS V14.00,2013-04-09 06:42:00,
2013-04-09 02:47:00,58.2,50.0,29.42,West,266,2.0,3.0,74,0.00,,,0.00,VWS V14.00,2013-04-09 06:47:00,
2013-04-09 02:52:00,58.2,50.3,29.42,SW,218,0.0,3.0,75,0.00,,,0.00,VWS V14.00,2013-04-09 06:52:00,
2013-04-09 02:57:00,58.2,50.0,29.42,SW,218,0.0,3.0,74,0.00,,,0.00,VWS V14.00,2013-04-09 06:57:00,
2013-04-09 03:00:00,57.9,50.4,29.42,East,101,0.0,4.0,76,0.00,,,0.00,VWS V14.00,2013-04-09 07:00:00,
2013-04-09 03:02:00,58.0,50.1,29.42,SW,218,0.0,3.0,75,0.00,,,0.00,VWS V14.00,2013-04-09 07:02:00,
2013-04-09 03:07:00,57.9,50.4,29.42,East,94,3.0,3.0,76,0.00,,,0.00,VWS V14.00,2013-04-09 07:07:00,
2013-04-09 03:12:00,58.3,50.8,29.41,ESE,103,4.0,7.0,76,0.00,,,0.00,VWS V14.00,2013-04-09 07:12:00,
2013-04-09 03:17:00,58.5,50.6,29.41,ESE,117,5.0,7.0,75,0.00,,,0.00,VWS V14.00,2013-04-09 07:17:00,
2013-04-09 03:22:00,58.6,50.7,29.41,ESE,103,0.0,8.0,75,0.00,,,0.00,VWS V14.00,2013-04-09 07:22:00,
2013-04-09 03:27:00,58.5,50.6,29.42,East,101,5.0,8.0,75,0.00,,,0.00,VWS V14.00,2013-04-09 07:27:00,
2013-04-09 03:30:00,58.3,50.8,29.41,East,88,1.0,8.0,76,0.00,,,0.00,VWS V14.00,2013-04-09 07:30:00,
2013-04-09 03:32:00,58.4,50.9,29.42,East,88,4.0,8.0,76,0.00,,,0.00,VWS V14.00,2013-04-09 07:32:00,
2013-04-09 03:37:00,58.3,50.8,29.41,ESE,117,2.0,2.0,76,0.00,,,0.00,VWS V14.00,2013-04-09 07:37:00,
2013-04-09 03:42:00,58.0,50.5,29.42,East,89,0.0,3.0,76,0.00,,,0.00,VWS V14.00,2013-04-09 07:42:00,
2013-04-09 03:47:00,58.0,50.8,29.42,East,82,1.0,5.0,77,0.00,,,0.00,VWS V14.00,2013-04-09 07:47:00,
2013-04-09 03:52:00,58.2,51.0,29.42,ESE,104,0.0,5.0,77,0.00,,,0.00,VWS V14.00,2013-04-09 07:52:00,
2013-04-09 03:57:00,58.1,50.6,29.42,ESE,104,0.0,5.0,76,0.00,,,0.00,VWS V14.00,2013-04-09 07:57:00,
2013-04-09 04:00:00,57.7,50.5,29.42,ESE,105,0.0,5.0,77,0.00,,,0.00,VWS V14.00,2013-04-09 08:00:00,
2013-04-09 04:02:00,57.8,50.7,29.42,ESE,105,0.0,5.0,77,0.00,,,0.00,VWS V14.00,2013-04-09 08:02:00,
2013-04-09 04:08:00,57.6,50.5,29.42,ESE,106,0.0,0.0,77,0.00,,,0.00,VWS V14.00,2013-04-09 08:08:00,
2013-04-09 04:13:00,57.4,50.6,29.42,SE,135,0.0,2.0,78,0.00,,,0.00,VWS V14.00,2013-04-09 08:13:00,
2013-04-09 04:18:00,57.4,50.6,29.42,SE,134,2.0,5.0,78,0.00,,,0.00,VWS V14.00,2013-04-09 08:18:00,
2013-04-09 04:23:00,57.7,50.9,29.42,SE,129,4.0,5.0,78,0.00,,,0.00,VWS V14.00,2013-04-09 08:23:00,
2013-04-09 04:28:00,57.9,51.1,29.42,ESE,111,5.0,6.0,78,0.00,,,0.00,VWS V14.00,2013-04-09 08:28:00,
2013-04-09 04:30:00,58.2,51.0,29.42,East,95,4.0,5.0,77,0.00,,,0.00,VWS V14.00,2013-04-09 08:30:00,
2013-04-09 04:35:00,58.1,50.9,29.42,East,94,4.0,4.0,77,0.00,,,0.00,VWS V14.00,2013-04-09 08:35:00,
2013-04-09 04:40:00,58.3,51.1,29.42,East,90,2.0,4.0,77,0.00,,,0.00,VWS V14.00,2013-04-09 08:40:00,
2013-04-09 04:45:00,58.0,50.8,29.43,ESE,110,3.0,4.0,77,0.00,,,0.00,VWS V14.00,2013-04-09 08:45:00,
2013-04-09 04:50:00,57.9,51.1,29.43,ESE,117,2.0,6.0,78,0.00,,,0.00,VWS V14.00,2013-04-09 08:50:00,
2013-04-09 04:55:00,57.8,51.0,29.43,ESE,112,2.0,6.0,78,0.00,,,0.00,VWS V14.00,2013-04-09 08:55:00,
2013-04-09 05:00:00,57.8,51.0,29.43,ESE,121,3.0,6.0,78,0.00,,,0.00,VWS V14.00,2013-04-09 09:00:00,
2013-04-09 05:05:00,57.8,51.0,29.43,ESE,112,1.0,6.0,78,0.00,,,0.00,VWS V14.00,2013-04-09 09:05:00,
2013-04-09 05:10:00,57.8,51.0,29.43,ESE,111,2.0,3.0,78,0.00,,,0.00,VWS V14.00,2013-04-09 09:10:00,
2013-04-09 05:15:00,57.6,50.8,29.43,ESE,113,1.0,3.0,78,0.00,,,0.00,VWS V14.00,2013-04-09 09:15:00,
2013-04-09 05:20:00,57.4,51.0,29.43,East,93,0.0,3.0,79,0.00,,,0.00,VWS V14.00,2013-04-09 09:20:00,
2013-04-09 05:25:00,57.2,50.8,29.43,East,94,0.0,3.0,79,0.00,,,0.00,VWS V14.00,2013-04-09 09:25:00,
2013-04-09 05:30:00,57.2,50.8,29.43,ENE,77,0.0,3.0,79,0.00,,,0.00,VWS V14.00,2013-04-09 09:30:00,
2013-04-09 05:35:00,57.2,50.8,29.43,East,86,0.0,3.0,79,0.00,,,0.00,VWS V14.00,2013-04-09 09:35:00,
2013-04-09 05:40:00,57.1,51.0,29.43,East,86,1.0,2.0,80,0.00,,,0.00,VWS V14.00,2013-04-09 09:40:00,
2013-04-09 05:45:00,57.0,50.9,29.43,East,82,1.0,2.0,80,0.00,,,0.00,VWS V14.00,2013-04-09 09:45:00,
2013-04-09 05:50:00,57.0,50.9,29.43,East,85,2.0,2.0,80,0.00,,,0.00,VWS V14.00,2013-04-09 09:50:00,
2013-04-09 05:55:00,57.0,50.9,29.44,ESE,121,3.0,3.0,80,0.00,,,0.00,VWS V14.00,2013-04-09 09:55:00,
2013-04-09 06:00:00,57.1,51.0,29.44,East,84,1.0,3.0,80,0.00,,,0.00,VWS V14.00,2013-04-09 10:00:00,
2013-04-09 06:01:00,57.0,50.9,29.44,ESE,103,1.0,3.0,80,0.00,,,0.00,VWS V14.00,2013-04-09 10:01:00,
2013-04-09 06:06:00,57.1,51.0,29.44,East,84,1.0,3.0,80,0.00,,,0.00,VWS V14.00,2013-04-09 10:06:00,
2013-04-09 06:11:00,57.2,50.8,29.44,ESE,103,0.0,2.0,79,0.00,,,0.00,VWS V14.00,2013-04-09 10:11:00,
2013-04-09 06:16:00,57.0,50.9,29.45,ESE,103,0.0,2.0,80,0.00,,,0.00,VWS V14.00,2013-04-09 10:16:00,
2013-04-09 06:21:00,56.6,50.5,29.44,ESE,103,0.0,2.0,80,0.00,,,0.00,VWS V14.00,2013-04-09 10:21:00,
2013-04-09 06:26:00,56.3,50.5,29.45,ESE,103,0.0,2.0,81,0.00,,,0.00,VWS V14.00,2013-04-09 10:26:00,
2013-04-09 06:30:00,56.3,50.5,29.45,ESE,103,0.0,2.0,81,0.00,,,0.00,VWS V14.00,2013-04-09 10:30:00,
2013-04-09 06:31:00,56.3,50.5,29.45,ESE,103,0.0,2.0,81,0.00,,,0.00,VWS V14.00,2013-04-09 10:31:00,
2013-04-09 06:36:00,56.3,50.5,29.45,ESE,103,0.0,0.0,81,0.00,,,0.00,VWS V14.00,2013-04-09 10:36:00,
2013-04-09 06:42:00,56.5,50.8,29.46,East,94,1.0,2.0,81,0.00,,,0.00,VWS V14.00,2013-04-09 10:42:00,
2013-04-09 06:47:00,56.8,51.0,29.46,ESE,115,2.0,2.0,81,0.00,,,0.00,VWS V14.00,2013-04-09 10:47:00,
2013-04-09 06:52:00,56.9,50.8,29.47,ESE,115,1.0,2.0,80,0.00,,,0.00,VWS V14.00,2013-04-09 10:52:00,
2013-04-09 06:57:00,57.1,51.0,29.47,ESE,113,2.0,2.0,80,0.00,,,0.00,VWS V14.00,2013-04-09 10:57:00,
2013-04-09 07:00:00,57.2,50.8,29.47,East,100,0.0,2.0,79,0.00,,,0.00,VWS V14.00,2013-04-09 11:00:00,
2013-04-09 07:02:00,57.2,51.1,29.47,East,100,0.0,2.0,80,0.00,,,0.00,VWS V14.00,2013-04-09 11:02:00,
2013-04-09 07:07:00,57.2,51.1,29.47,East,101,1.0,2.0,80,0.00,,,0.00,VWS V14.00,2013-04-09 11:07:00,
2013-04-09 07:12:00,57.4,51.0,29.47,ENE,71,0.0,2.0,79,0.00,,,0.00,VWS V14.00,2013-04-09 11:12:00,
2013-04-09 07:17:00,57.5,51.0,29.48,NE,43,1.0,3.0,79,0.00,,,0.00,VWS V14.00,2013-04-09 11:17:00,
2013-04-09 07:22:00,57.4,51.0,29.47,NE,37,0.0,3.0,79,0.00,,,0.00,VWS V14.00,2013-04-09 11:22:00,
2013-04-09 07:27:00,57.4,51.0,29.48,NE,37,0.0,3.0,79,0.00,,,0.00,VWS V14.00,2013-04-09 11:27:00,
2013-04-09 07:30:00,57.6,50.8,29.48,NE,37,0.0,3.0,78,0.00,,,0.00,VWS V14.00,2013-04-09 11:30:00,
2013-04-09 07:32:00,57.6,51.1,29.48,NE,37,0.0,3.0,79,0.00,,,0.00,VWS V14.00,2013-04-09 11:32:00,
2013-04-09 07:37:00,57.6,50.8,29.48,NE,37,0.0,0.0,78,0.00,,,0.00,VWS V14.00,2013-04-09 11:37:00,
2013-04-09 07:42:00,57.6,50.8,29.48,SE,128,2.0,2.0,78,0.00,,,0.00,VWS V14.00,2013-04-09 11:42:00,
2013-04-09 07:47:00,57.9,51.1,29.48,ESE,112,0.0,2.0,78,0.00,,,0.00,VWS V14.00,2013-04-09 11:47:00,
2013-04-09 07:52:00,58.2,51.0,29.49,ESE,107,0.0,3.0,77,0.00,,,0.00,VWS V14.00,2013-04-09 11:52:00,
2013-04-09 07:57:00,58.4,51.2,29.49,ESE,107,0.0,3.0,77,0.00,,,0.00,VWS V14.00,2013-04-09 11:57:00,
2013-04-09 08:00:00,58.6,51.4,29.50,ESE,105,0.0,3.0,77,0.00,,,0.00,VWS V14.00,2013-04-09 12:00:00,
2013-04-09 08:02:00,58.6,51.4,29.50,ESE,105,0.0,3.0,77,0.00,,,0.00,VWS V14.00,2013-04-09 12:02:00,
2013-04-09 08:07:00,58.6,51.1,29.50,ENE,72,1.0,2.0,76,0.00,,,0.00,VWS V14.00,2013-04-09 12:07:00,
2013-04-09 08:12:00,58.8,51.6,29.50,NE,54,0.0,2.0,77,0.00,,,0.00,VWS V14.00,2013-04-09 12:12:00,
2013-04-09 08:17:00,59.1,51.9,29.50,NE,54,0.0,2.0,77,0.00,,,0.00,VWS V14.00,2013-04-09 12:17:00,
2013-04-09 08:22:00,59.1,51.5,29.50,NNE,30,0.0,2.0,76,0.00,,,0.00,VWS V14.00,2013-04-09 12:22:00,
2013-04-09 08:28:00,59.0,51.8,29.50,NNE,30,0.0,2.0,77,0.00,,,0.00,VWS V14.00,2013-04-09 12:28:00,
2013-04-09 08:30:00,59.9,52.0,29.51,East,101,0.0,2.0,75,0.00,,,0.00,VWS V14.00,2013-04-09 12:30:00,
2013-04-09 08:33:00,59.6,51.7,29.51,East,101,0.0,2.0,75,0.00,,,0.00,VWS V14.00,2013-04-09 12:33:00,
2013-04-09 08:38:00,60.2,52.3,29.51,East,101,0.0,1.0,75,0.00,,,0.00,VWS V14.00,2013-04-09 12:38:00,
2013-04-09 08:43:00,60.8,52.1,29.51,East,101,0.0,1.0,73,0.00,,,0.00,VWS V14.00,2013-04-09 12:43:00,
2013-04-09 08:48:00,61.2,52.1,29.51,SE,141,1.0,3.0,72,0.00,,,0.00,VWS V14.00,2013-04-09 12:48:00,
2013-04-09 08:53:00,60.9,51.8,29.51,East,82,0.0,3.0,72,0.00,,,0.00,VWS V14.00,2013-04-09 12:53:00,
2013-04-09 08:58:00,60.6,51.9,29.51,East,82,0.0,3.0,73,0.00,,,0.00,VWS V14.00,2013-04-09 12:58:00,
2013-04-09 09:00:00,60.8,52.1,29.51,East,82,0.0,3.0,73,0.00,,,0.00,VWS V14.00,2013-04-09 13:00:00,
2013-04-09 09:03:00,60.4,52.1,29.51,East,82,0.0,3.0,74,0.00,,,0.00,VWS V14.00,2013-04-09 13:03:00,
2013-04-09 09:08:00,61.1,52.4,29.51,East,82,0.0,0.0,73,0.00,,,0.00,VWS V14.00,2013-04-09 13:08:00,
2013-04-09 09:13:00,61.7,52.6,29.51,East,82,0.0,0.0,72,0.00,,,0.00,VWS V14.00,2013-04-09 13:13:00,
2013-04-09 09:18:00,61.9,52.4,29.51,ENE,72,2.0,2.0,71,0.00,,,0.00,VWS V14.00,2013-04-09 13:18:00,
2013-04-09 09:23:00,62.2,52.7,29.50,NE,35,2.0,4.0,71,0.00,,,0.00,VWS V14.00,2013-04-09 13:23:00,
2013-04-09 09:28:00,62.2,52.3,29.50,East,90,1.0,4.0,70,0.00,,,0.00,VWS V14.00,2013-04-09 13:28:00,
2013-04-09 09:30:00,61.6,52.1,29.50,ENE,69,1.0,4.0,71,0.00,,,0.00,VWS V14.00,2013-04-09 13:30:00,
2013-04-09 09:33:00,61.8,51.9,29.50,East,90,2.0,4.0,70,0.00,,,0.00,VWS V14.00,2013-04-09 13:33:00,
2013-04-09 09:38:00,61.3,51.8,29.50,ENE,77,3.0,3.0,71,0.00,,,0.00,VWS V14.00,2013-04-09 13:38:00,
2013-04-09 09:43:00,61.1,52.0,29.50,East,90,1.0,3.0,72,0.00,,,0.00,VWS V14.00,2013-04-09 13:43:00,
2013-04-09 09:48:00,61.1,52.0,29.50,ENE,70,3.0,4.0,72,0.00,,,0.00,VWS V14.00,2013-04-09 13:48:00,
2013-04-09 09:53:00,61.1,52.0,29.50,East,79,3.0,4.0,72,0.00,,,0.00,VWS V14.00,2013-04-09 13:53:00,
2013-04-09 09:58:00,61.1,52.0,29.50,ENE,65,2.0,4.0,72,0.00,,,0.00,VWS V14.00,2013-04-09 13:58:00,
2013-04-09 10:00:00,61.4,52.3,29.50,East,88,1.0,4.0,72,0.00,,,0.00,VWS V14.00,2013-04-09 14:00:00,
2013-04-09 10:04:00,61.3,52.2,29.50,ENE,73,3.0,4.0,72,0.00,,,0.00,VWS V14.00,2013-04-09 14:04:00,
2013-04-09 10:09:00,61.5,52.0,29.51,ENE,62,3.0,3.0,71,0.00,,,0.00,VWS V14.00,2013-04-09 14:09:00,
2013-04-09 10:14:00,61.8,52.3,29.50,ENE,74,3.0,4.0,71,0.00,,,0.00,VWS V14.00,2013-04-09 14:14:00,
2013-04-09 10:19:00,62.3,52.4,29.50,East,97,3.0,4.0,70,0.00,,,0.00,VWS V14.00,2013-04-09 14:19:00,
2013-04-09 10:25:00,62.7,52.8,29.50,East,82,3.0,5.0,70,0.00,,,0.00,VWS V14.00,2013-04-09 14:25:00,
2013-04-09 10:30:00,63.0,52.7,29.50,East,89,2.0,5.0,69,0.00,,,0.00,VWS V14.00,2013-04-09 14:30:00,
2013-04-09 10:35:00,63.4,53.1,29.50,ENE,65,2.0,7.0,69,0.00,,,0.00,VWS V14.00,2013-04-09 14:35:00,
2013-04-09 10:40:00,63.8,53.0,29.50,East,84,4.0,8.0,68,0.00,,,0.00,VWS V14.00,2013-04-09 14:40:00,
2013-04-09 10:45:00,64.0,52.8,29.50,ENE,64,2.0,8.0,67,0.00,,,0.00,VWS V14.00,2013-04-09 14:45:00,
2013-04-09 10:50:00,64.8,53.2,29.50,East,97,4.0,8.0,66,0.00,,,0.00,VWS V14.00,2013-04-09 14:50:00,
2013-04-09 10:55:00,65.2,53.6,29.50,NE,46,5.0,8.0,66,0.00,,,0.00,VWS V14.00,2013-04-09 14:55:00,
2013-04-09 11:00:00,66.7,54.2,29.50,ENE,68,1.0,8.0,64,0.00,,,0.00,VWS V14.00,2013-04-09 15:00:00,
2013-04-09 11:05:00,66.9,53.0,29.50,ENE,77,2.0,9.0,61,0.00,,,0.00,VWS V14.00,2013-04-09 15:05:00,
2013-04-09 11:10:00,67.1,52.8,29.50,ENE,63,5.0,6.0,60,0.00,,,0.00,VWS V14.00,2013-04-09 15:10:00,
2013-04-09 11:15:00,67.6,54.6,29.50,ENE,70,6.0,6.0,63,0.00,,,0.00,VWS V14.00,2013-04-09 15:15:00,
2013-04-09 11:20:00,68.9,53.1,29.49,NE,56,3.0,7.0,57,0.00,,,0.00,VWS V14.00,2013-04-09 15:20:00,
2013-04-09 11:25:00,69.3,53.4,29.49,NNW,336,1.0,7.0,57,0.00,,,0.00,VWS V14.00,2013-04-09 15:25:00,
2013-04-09 11:30:00,70.1,53.2,29.49,NE,54,5.0,7.0,55,0.00,,,0.00,VWS V14.00,2013-04-09 15:30:00,
2013-04-09 11:36:00,70.1,53.7,29.49,North,7,4.0,4.0,56,0.00,,,0.00,VWS V14.00,2013-04-09 15:36:00,
2013-04-09 11:41:00,69.7,53.3,29.49,East,83,4.0,8.0,56,0.00,,,0.00,VWS V14.00,2013-04-09 15:41:00,
2013-04-09 11:46:00,69.2,52.8,29.49,ENE,65,3.0,8.0,56,0.00,,,0.00,VWS V14.00,2013-04-09 15:46:00,
2013-04-09 11:51:00,70.0,53.6,29.49,ENE,72,6.0,8.0,56,0.00,,,0.00,VWS V14.00,2013-04-09 15:51:00,
2013-04-09 11:56:00,70.2,53.3,29.49,ENE,71,3.0,8.0,55,0.00,,,0.00,VWS V14.00,2013-04-09 15:56:00,
2013-04-09 12:00:00,69.2,52.8,29.49,ENE,65,8.0,9.0,56,0.00,,,0.00,VWS V14.00,2013-04-09 16:00:00,
2013-04-09 12:01:00,69.1,52.3,29.48,ENE,73,3.0,9.0,55,0.00,,,0.00,VWS V14.00,2013-04-09 16:01:00,
2013-04-09 12:06:00,69.4,53.5,29.49,East,86,8.0,10.0,57,0.00,,,0.00,VWS V14.00,2013-04-09 16:06:00,
2013-04-09 12:11:00,69.5,53.1,29.48,ENE,57,2.0,10.0,56,0.00,,,0.00,VWS V14.00,2013-04-09 16:11:00,
2013-04-09 12:16:00,69.9,53.5,29.48,ENE,61,5.0,10.0,56,0.00,,,0.00,VWS V14.00,2013-04-09 16:16:00,
2013-04-09 12:22:00,71.3,52.8,29.48,NNE,27,6.0,10.0,52,0.00,,,0.00,VWS V14.00,2013-04-09 16:22:00,
2013-04-09 12:27:00,71.2,52.7,29.47,ENE,70,8.0,11.0,52,0.00,,,0.00,VWS V14.00,2013-04-09 16:27:00,
2013-04-09 12:30:00,70.3,52.4,29.47,ENE,60,7.0,11.0,53,0.00,,,0.00,VWS V14.00,2013-04-09 16:30:00,
2013-04-09 12:32:00,70.5,52.0,29.47,ENE,61,5.0,11.0,52,0.00,,,0.00,VWS V14.00,2013-04-09 16:32:00,
2013-04-09 12:37:00,70.4,53.0,29.47,ENE,72,5.0,7.0,54,0.00,,,0.00,VWS V14.00,2013-04-09 16:37:00,
2013-04-09 12:42:00,70.6,51.6,29.47,NNE,15,6.0,7.0,51,0.00,,,0.00,VWS V14.00,2013-04-09 16:42:00,
2013-04-09 12:47:00,70.9,51.9,29.47,ENE,67,5.0,9.0,51,0.00,,,0.00,VWS V14.00,2013-04-09 16:47:00,
2013-04-09 12:52:00,71.1,51.5,29.47,East,79,7.0,9.0,50,0.00,,,0.00,VWS V14.00,2013-04-09 16:52:00,
2013-04-09 12:57:00,70.8,50.7,29.47,NE,50,4.0,9.0,49,0.00,,,0.00,VWS V14.00,2013-04-09 16:57:00,
2013-04-09 13:00:00,71.5,51.4,29.46,ENE,63,5.0,9.0,49,0.00,,,0.00,VWS V14.00,2013-04-09 17:00:00,
2013-04-09 13:02:00,71.6,51.5,29.47,ENE,73,6.0,9.0,49,0.00,,,0.00,VWS V14.00,2013-04-09 17:02:00,
2013-04-09 13:07:00,71.7,51.0,29.46,NNE,20,3.0,9.0,48,0.00,,,0.00,VWS V14.00,2013-04-09 17:07:00,
2013-04-09 13:12:00,72.7,51.9,29.46,ENE,65,4.0,9.0,48,0.00,,,0.00,VWS V14.00,2013-04-09 17:12:00,
2013-04-09 13:17:00,73.4,50.8,29.45,NE,50,6.0,9.0,45,0.00,,,0.00,VWS V14.00,2013-04-09 17:17:00,
2013-04-09 13:22:00,73.4,51.4,29.45,East,90,9.0,10.0,46,0.00,,,0.00,VWS V14.00,2013-04-09 17:22:00,
2013-04-09 13:28:00,73.2,50.0,29.45,ESE,115,1.0,12.0,44,0.00,,,0.00,VWS V14.00,2013-04-09 17:28:00,
2013-04-09 13:30:00,75.2,49.2,29.45,East,99,4.0,12.0,40,0.00,,,0.00,VWS V14.00,2013-04-09 17:30:00,
2013-04-09 13:33:00,74.9,50.9,29.45,SE,144,7.0,12.0,43,0.00,,,0.00,VWS V14.00,2013-04-09 17:33:00,
2013-04-09 13:38:00,74.7,49.5,29.45,ENE,62,3.0,9.0,41,0.00,,,0.00,VWS V14.00,2013-04-09 17:38:00,
2013-04-09 13:43:00,74.1,49.6,29.45,NNE,27,5.0,9.0,42,0.00,,,0.00,VWS V14.00,2013-04-09 17:43:00,
2013-04-09 13:48:00,74.3,47.8,29.45,NE,53,5.0,10.0,39,0.00,,,0.00,VWS V14.00,2013-04-09 17:48:00,
2013-04-09 13:53:00,73.9,48.1,29.45,ENE,59,1.0,11.0,40,0.00,,,0.00,VWS V14.00,2013-04-09 17:53:00,
2013-04-09 13:58:00,74.7,48.8,29.44,ENE,63,5.0,11.0,40,0.00,,,0.00,VWS V14.00,2013-04-09 17:58:00,
2013-04-09 14:00:00,74.8,50.2,29.44,ENE,70,9.0,14.0,42,0.00,,,0.00,VWS V14.00,2013-04-09 18:00:00,
2013-04-09 14:03:00,74.9,49.0,29.44,ESE,109,7.0,11.0,40,0.00,,,0.00,VWS V14.00,2013-04-09 18:03:00,
2013-04-09 14:08:00,74.5,49.3,29.45,ESE,103,7.0,9.0,41,0.00,,,0.00,VWS V14.00,2013-04-09 18:08:00,
2013-04-09 14:13:00,75.2,50.6,29.44,ESE,121,4.0,10.0,42,0.00,,,0.00,VWS V14.00,2013-04-09 18:13:00,
2013-04-09 14:18:00,75.6,49.6,29.44,East,83,2.0,12.0,40,0.00,,,0.00,VWS V14.00,2013-04-09 18:18:00,
2013-04-09 14:23:00,74.8,49.5,29.44,NE,34,3.0,12.0,41,0.00,,,0.00,VWS V14.00,2013-04-09 18:23:00,
2013-04-09 14:28:00,75.8,50.5,29.43,ENE,74,2.0,12.0,41,0.00,,,0.00,VWS V14.00,2013-04-09 18:28:00,
2013-04-09 14:30:00,77.0,50.2,29.42,East,99,7.0,13.0,39,0.00,,,0.00,VWS V14.00,2013-04-09 18:30:00,
2013-04-09 14:33:00,77.1,49.6,29.42,East,96,2.0,12.0,38,0.00,,,0.00,VWS V14.00,2013-04-09 18:33:00,
2013-04-09 14:38:00,76.2,49.5,29.42,NE,39,5.0,11.0,39,0.00,,,0.00,VWS V14.00,2013-04-09 18:38:00,
2013-04-09 14:43:00,76.6,49.1,29.42,East,96,6.0,16.0,38,0.00,,,0.00,VWS V14.00,2013-04-09 18:43:00,
2013-04-09 14:48:00,76.6,49.8,29.42,East,85,7.0,16.0,39,0.00,,,0.00,VWS V14.00,2013-04-09 18:48:00,
2013-04-09 14:53:00,76.4,50.3,29.41,NE,41,3.0,16.0,40,0.00,,,0.00,VWS V14.00,2013-04-09 18:53:00,
2013-04-09 14:58:00,78.0,49.7,29.41,NE,56,5.0,16.0,37,0.00,,,0.00,VWS V14.00,2013-04-09 18:58:00,
2013-04-09 15:00:00,77.3,49.7,29.41,ENE,71,4.0,16.0,38,0.00,,,0.00,VWS V14.00,2013-04-09 19:00:00,
2013-04-09 15:03:00,77.6,51.4,29.41,NE,46,5.0,16.0,40,0.00,,,0.00,VWS V14.00,2013-04-09 19:03:00,
2013-04-09 15:08:00,76.6,49.1,29.41,ENE,65,6.0,9.0,38,0.00,,,0.00,VWS V14.00,2013-04-09 19:08:00,
2013-04-09 15:13:00,75.9,49.2,29.41,NE,54,4.0,11.0,39,0.00,,,0.00,VWS V14.00,2013-04-09 19:13:00,
2013-04-09 15:18:00,76.6,49.8,29.40,ENE,61,5.0,11.0,39,0.00,,,0.00,VWS V14.00,2013-04-09 19:18:00,
2013-04-09 15:23:00,76.4,50.3,29.40,NE,49,4.0,11.0,40,0.00,,,0.00,VWS V14.00,2013-04-09 19:23:00,
2013-04-09 15:29:00,77.3,49.7,29.39,ENE,68,4.0,11.0,38,0.00,,,0.00,VWS V14.00,2013-04-09 19:29:00,
2013-04-09 15:30:00,77.8,50.2,29.40,East,101,3.0,11.0,38,0.00,,,0.00,VWS V14.00,2013-04-09 19:30:00,
2013-04-09 15:34:00,77.9,50.3,29.39,ESE,112,7.0,11.0,38,0.00,,,0.00,VWS V14.00,2013-04-09 19:34:00,
2013-04-09 15:39:00,77.7,50.8,29.39,ESE,110,5.0,11.0,39,0.00,,,0.00,VWS V14.00,2013-04-09 19:39:00,
2013-04-09 15:44:00,78.7,50.3,29.39,NE,53,3.0,11.0,37,0.00,,,0.00,VWS V14.00,2013-04-09 19:44:00,
2013-04-09 15:49:00,77.7,50.8,29.39,ESE,108,4.0,11.0,39,0.00,,,0.00,VWS V14.00,2013-04-09 19:49:00,
2013-04-09 15:54:00,78.3,49.9,29.38,SSW,204,2.0,11.0,37,0.00,,,0.00,VWS V14.00,2013-04-09 19:54:00,
2013-04-09 15:59:00,77.4,50.5,29.38,SSE,157,4.0,11.0,39,0.00,,,0.00,VWS V14.00,2013-04-09 19:59:00,
2013-04-09 16:00:00,77.8,50.9,29.37,East,99,6.0,11.0,39,0.00,,,0.00,VWS V14.00,2013-04-09 20:00:00,
2013-04-09 16:04:00,77.6,50.7,29.37,East,85,4.0,11.0,39,0.00,,,0.00,VWS V14.00,2013-04-09 20:04:00,
2013-04-09 16:09:00,78.3,50.6,29.37,East,93,6.0,11.0,38,0.00,,,0.00,VWS V14.00,2013-04-09 20:09:00,
2013-04-09 16:15:00,77.6,48.6,29.36,ENE,76,2.0,11.0,36,0.00,,,0.00,VWS V14.00,2013-04-09 20:15:00,
2013-04-09 16:20:00,78.2,49.8,29.36,SSE,147,10.0,13.0,37,0.00,,,0.00,VWS V14.00,2013-04-09 20:20:00,
2013-04-09 16:25:00,76.9,49.4,29.36,SE,134,3.0,13.0,38,0.00,,,0.00,VWS V14.00,2013-04-09 20:25:00,
2013-04-09 16:30:00,76.5,49.0,29.36,ESE,110,10.0,13.0,38,0.00,,,0.00,VWS V14.00,2013-04-09 20:30:00,
2013-04-09 16:35:00,75.4,48.0,29.35,East,83,4.0,15.0,38,0.00,,,0.00,VWS V14.00,2013-04-09 20:35:00,
2013-04-09 16:40:00,75.4,49.4,29.35,NE,49,8.0,9.0,40,0.00,,,0.00,VWS V14.00,2013-04-09 20:40:00,
2013-04-09 16:46:00,76.1,49.4,29.35,ESE,106,8.0,15.0,39,0.00,,,0.00,VWS V14.00,2013-04-09 20:46:00,
2013-04-09 16:53:00,76.4,49.6,29.35,ENE,61,6.0,15.0,39,0.00,,,0.00,VWS V14.00,2013-04-09 20:53:00,
2013-04-09 16:58:00,76.3,49.5,29.35,SE,132,5.0,15.0,39,0.00,,,0.00,VWS V14.00,2013-04-09 20:58:00,
2013-04-09 17:00:00,77.0,50.2,29.35,SSE,152,7.0,15.0,39,0.00,,,0.00,VWS V14.00,2013-04-09 21:00:00,
2013-04-09 17:03:00,76.6,49.8,29.35,East,81,5.0,15.0,39,0.00,,,0.00,VWS V14.00,2013-04-09 21:03:00,
2013-04-09 17:08:00,78.0,51.1,29.35,SE,124,9.0,10.0,39,0.00,,,0.00,VWS V14.00,2013-04-09 21:08:00,
2013-04-09 17:13:00,77.8,49.5,29.34,SSW,210,4.0,13.0,37,0.00,,,0.00,VWS V14.00,2013-04-09 21:13:00,
2013-04-09 17:19:00,78.4,50.7,29.34,East,94,5.0,13.0,38,0.00,,,0.00,VWS V14.00,2013-04-09 21:19:00,
2013-04-09 17:24:00,78.3,49.9,29.34,ENE,77,4.0,13.0,37,0.00,,,0.00,VWS V14.00,2013-04-09 21:24:00,
2013-04-09 17:29:00,78.8,51.1,29.34,ENE,73,6.0,13.0,38,0.00,,,0.00,VWS V14.00,2013-04-09 21:29:00,
2013-04-09 17:30:00,78.4,51.4,29.34,NE,47,2.0,13.0,39,0.00,,,0.00,VWS V14.00,2013-04-09 21:30:00,
2013-04-09 17:34:00,78.2,50.5,29.34,ENE,77,6.0,13.0,38,0.00,,,0.00,VWS V14.00,2013-04-09 21:34:00,
2013-04-09 17:39:00,79.0,52.0,29.34,ENE,63,2.0,7.0,39,0.00,,,0.00,VWS V14.00,2013-04-09 21:39:00,
2013-04-09 17:44:00,78.1,50.5,29.34,East,81,1.0,13.0,38,0.00,,,0.00,VWS V14.00,2013-04-09 21:44:00,
2013-04-09 17:50:00,77.8,50.2,29.34,SE,143,5.0,13.0,38,0.00,,,0.00,VWS V14.00,2013-04-09 21:50:00,
2013-04-09 17:55:00,77.9,51.0,29.34,NE,46,4.0,13.0,39,0.00,,,0.00,VWS V14.00,2013-04-09 21:55:00,
2013-04-09 18:00:00,77.2,50.3,29.35,ESE,110,9.0,13.0,39,0.00,,,0.00,VWS V14.00,2013-04-09 22:00:00,
2013-04-09 18:05:00,76.8,50.0,29.35,East,83,7.0,13.0,39,0.00,,,0.00,VWS V14.00,2013-04-09 22:05:00,
2013-04-09 18:10:00,76.5,51.1,29.35,SE,131,6.0,13.0,41,0.00,,,0.00,VWS V14.00,2013-04-09 22:10:00,
2013-04-09 18:15:00,76.6,50.5,29.35,SSE,166,5.0,13.0,40,0.00,,,0.00,VWS V14.00,2013-04-09 22:15:00,
2013-04-09 18:20:00,76.7,50.6,29.35,ESE,107,6.0,13.0,40,0.00,,,0.00,VWS V14.00,2013-04-09 22:20:00,
2013-04-09 18:25:00,75.7,51.0,29.35,ESE,106,8.0,13.0,42,0.00,,,0.00,VWS V14.00,2013-04-09 22:25:00,
2013-04-09 18:30:00,74.6,50.7,29.35,SE,141,7.0,19.0,43,0.00,,,0.00,VWS V14.00,2013-04-09 22:30:00,
2013-04-09 18:35:00,74.4,51.1,29.34,SE,137,4.0,19.0,44,0.00,,,0.00,VWS V14.00,2013-04-09 22:35:00,
2013-04-09 18:40:00,74.6,51.3,29.34,ESE,115,5.0,13.0,44,0.00,,,0.00,VWS V14.00,2013-04-09 22:40:00,
2013-04-09 18:45:00,74.0,50.7,29.34,ENE,62,6.0,13.0,44,0.00,,,0.00,VWS V14.00,2013-04-09 22:45:00,
2013-04-09 18:50:00,73.4,50.8,29.34,East,91,8.0,13.0,45,0.00,,,0.00,VWS V14.00,2013-04-09 22:50:00,
2013-04-09 18:55:00,73.0,51.0,29.35,East,96,7.0,16.0,46,0.00,,,0.00,VWS V14.00,2013-04-09 22:55:00,
2013-04-09 19:00:00,73.0,51.6,29.34,East,89,6.0,16.0,47,0.00,,,0.00,VWS V14.00,2013-04-09 23:00:00,
2013-04-09 19:05:00,72.9,50.9,29.34,East,80,5.0,16.0,46,0.00,,,0.00,VWS V14.00,2013-04-09 23:05:00,
2013-04-09 19:10:00,72.7,51.3,29.35,ENE,63,5.0,9.0,47,0.00,,,0.00,VWS V14.00,2013-04-09 23:10:00,
2013-04-09 19:16:00,72.4,51.0,29.34,ENE,65,1.0,9.0,47,0.00,,,0.00,VWS V14.00,2013-04-09 23:16:00,
2013-04-09 19:21:00,72.2,51.4,29.34,ENE,67,4.0,10.0,48,0.00,,,0.00,VWS V14.00,2013-04-09 23:21:00,
2013-04-09 19:26:00,71.9,51.2,29.34,ENE,63,1.0,10.0,48,0.00,,,0.00,VWS V14.00,2013-04-09 23:26:00,
2013-04-09 19:30:00,71.4,52.3,29.34,ENE,65,4.0,10.0,51,0.00,,,0.00,VWS V14.00,2013-04-09 23:30:00,
2013-04-09 19:31:00,71.6,52.0,29.34,ENE,75,5.0,10.0,50,0.00,,,0.00,VWS V14.00,2013-04-09 23:31:00,
2013-04-09 19:36:00,71.4,52.3,29.34,East,82,5.0,6.0,51,0.00,,,0.00,VWS V14.00,2013-04-09 23:36:00,
2013-04-09 19:41:00,71.1,52.6,29.34,NE,35,7.0,8.0,52,0.00,,,0.00,VWS V14.00,2013-04-09 23:41:00,
2013-04-09 19:46:00,70.8,52.8,29.34,ESE,113,6.0,11.0,53,0.00,,,0.00,VWS V14.00,2013-04-09 23:46:00,
2013-04-09 19:51:00,70.5,53.1,29.34,East,98,6.0,12.0,54,0.00,,,0.00,VWS V14.00,2013-04-09 23:51:00,
2013-04-09 19:57:00,70.2,52.8,29.34,SE,124,3.0,12.0,54,0.00,,,0.00,VWS V14.00,2013-04-09 23:57:00,
2013-04-09 20:00:00,69.8,52.9,29.33,East,86,12.0,14.0,55,0.00,,,0.00,VWS V14.00,2013-04-10 00:00:00,
2013-04-09 20:02:00,69.9,53.0,29.34,East,84,8.0,12.0,55,0.00,,,0.00,VWS V14.00,2013-04-10 00:02:00,
2013-04-09 20:07:00,69.7,52.8,29.33,ESE,111,6.0,15.0,55,0.00,,,0.00,VWS V14.00,2013-04-10 00:07:00,
2013-04-09 20:12:00,69.4,53.0,29.33,ENE,73,11.0,15.0,56,0.00,,,0.00,VWS V14.00,2013-04-10 00:12:00,
2013-04-09 20:17:00,69.2,52.8,29.33,East,99,7.0,15.0,56,0.00,,,0.00,VWS V14.00,2013-04-10 00:17:00,
2013-04-09 20:22:00,69.0,53.2,29.33,East,80,5.0,15.0,57,0.00,,,0.00,VWS V14.00,2013-04-10 00:22:00,
2013-04-09 20:27:00,68.7,52.9,29.33,East,86,6.0,15.0,57,0.00,,,0.00,VWS V14.00,2013-04-10 00:27:00,
2013-04-09 20:30:00,68.3,53.0,29.33,ENE,68,11.0,15.0,58,0.00,,,0.00,VWS V14.00,2013-04-10 00:30:00,
2013-04-09 20:32:00,68.5,53.2,29.33,East,83,8.0,15.0,58,0.00,,,0.00,VWS V14.00,2013-04-10 00:32:00,
2013-04-09 20:37:00,68.2,52.9,29.33,ENE,63,7.0,12.0,58,0.00,,,0.00,VWS V14.00,2013-04-10 00:37:00,
2013-04-09 20:43:00,68.0,53.2,29.33,East,82,9.0,12.0,59,0.00,,,0.00,VWS V14.00,2013-04-10 00:43:00,
2013-04-09 20:48:00,67.9,53.1,29.33,ENE,68,9.0,14.0,59,0.00,,,0.00,VWS V14.00,2013-04-10 00:48:00,
2013-04-09 20:53:00,67.7,52.9,29.32,East,96,6.0,14.0,59,0.00,,,0.00,VWS V14.00,2013-04-10 00:53:00,
2013-04-09 20:58:00,67.5,52.7,29.32,ENE,77,8.0,17.0,59,0.00,,,0.00,VWS V14.00,2013-04-10 00:58:00,
2013-04-09 21:00:00,67.2,52.9,29.32,NE,56,8.0,17.0,60,0.00,,,0.00,VWS V14.00,2013-04-10 01:00:00,
2013-04-09 21:03:00,67.3,53.0,29.32,East,96,8.0,17.0,60,0.00,,,0.00,VWS V14.00,2013-04-10 01:03:00,
2013-04-09 21:08:00,67.1,52.8,29.33,ESE,117,10.0,11.0,60,0.00,,,0.00,VWS V14.00,2013-04-10 01:08:00,
2013-04-09 21:13:00,66.9,53.0,29.33,East,86,6.0,11.0,61,0.00,,,0.00,VWS V14.00,2013-04-10 01:13:00,
2013-04-09 21:18:00,66.8,52.9,29.33,ENE,72,7.0,13.0,61,0.00,,,0.00,VWS V14.00,2013-04-10 01:18:00,
2013-04-09 21:23:00,66.7,52.8,29.33,East,86,7.0,13.0,61,0.00,,,0.00,VWS V14.00,2013-04-10 01:23:00,
2013-04-09 21:28:00,66.5,52.7,29.33,East,84,5.0,13.0,61,0.00,,,0.00,VWS V14.00,2013-04-10 01:28:00,
2013-04-09 21:30:00,66.3,52.5,29.32,East,79,8.0,13.0,61,0.00,,,0.00,VWS V14.00,2013-04-10 01:30:00,
2013-04-09 21:33:00,66.4,52.6,29.33,East,83,7.0,13.0,61,0.00,,,0.00,VWS V14.00,2013-04-10 01:33:00,
2013-04-09 21:38:00,66.3,52.5,29.33,ESE,102,9.0,11.0,61,0.00,,,0.00,VWS V14.00,2013-04-10 01:38:00,
2013-04-09 21:43:00,66.2,52.8,29.33,East,83,7.0,12.0,62,0.00,,,0.00,VWS V14.00,2013-04-10 01:43:00,
2013-04-09 21:48:00,66.2,52.8,29.33,East,80,10.0,14.0,62,0.00,,,0.00,VWS V14.00,2013-04-10 01:48:00,
2013-04-09 21:53:00,66.1,52.7,29.33,ENE,77,6.0,14.0,62,0.00,,,0.00,VWS V14.00,2013-04-10 01:53:00,
2013-04-09 21:59:00,65.9,52.5,29.33,East,96,7.0,19.0,62,0.00,,,0.00,VWS V14.00,2013-04-10 01:59:00,
2013-04-09 22:00:00,65.7,52.8,29.34,East,84,11.0,19.0,63,0.00,,,0.00,VWS V14.00,2013-04-10 02:00:00,
2013-04-09 22:04:00,65.8,52.9,29.34,NE,45,6.0,19.0,63,0.00,,,0.00,VWS V14.00,2013-04-10 02:04:00,
2013-04-09 22:09:00,65.6,52.7,29.34,East,83,6.0,16.0,63,0.00,,,0.00,VWS V14.00,2013-04-10 02:09:00,
2013-04-09 22:14:00,65.5,52.6,29.33,East,82,9.0,16.0,63,0.00,,,0.00,VWS V14.00,2013-04-10 02:14:00,
2013-04-09 22:19:00,65.4,52.5,29.33,ENE,77,5.0,16.0,63,0.00,,,0.00,VWS V14.00,2013-04-10 02:19:00,
2013-04-09 22:24:00,65.2,52.3,29.33,SE,131,10.0,19.0,63,0.00,,,0.00,VWS V14.00,2013-04-10 02:24:00,
2013-04-09 22:29:00,65.1,52.6,29.34,ESE,103,9.0,19.0,64,0.00,,,0.00,VWS V14.00,2013-04-10 02:29:00,
2013-04-09 22:30:00,65.0,52.5,29.35,ESE,107,5.0,19.0,64,0.00,,,0.00,VWS V14.00,2013-04-10 02:30:00,
2013-04-09 22:34:00,65.0,52.5,29.34,ESE,118,8.0,19.0,64,0.00,,,0.00,VWS V14.00,2013-04-10 02:34:00,
2013-04-09 22:39:00,64.9,52.5,29.35,SE,131,10.0,12.0,64,0.00,,,0.00,VWS V14.00,2013-04-10 02:39:00,
2013-04-09 22:44:00,64.8,52.3,29.35,ESE,103,5.0,12.0,64,0.00,,,0.00,VWS V14.00,2013-04-10 02:44:00,
2013-04-09 22:49:00,64.7,52.3,29.35,ESE,113,11.0,13.0,64,0.00,,,0.00,VWS V14.00,2013-04-10 02:49:00,
2013-04-09 22:54:00,64.6,52.2,29.35,ESE,122,5.0,13.0,64,0.00,,,0.00,VWS V14.00,2013-04-10 02:54:00,
2013-04-09 22:59:00,64.5,52.1,29.35,East,82,14.0,16.0,64,0.00,,,0.00,VWS V14.00,2013-04-10 02:59:00,
2013-04-09 23:00:00,64.6,52.2,29.35,ESE,105,10.0,19.0,64,0.00,,,0.00,VWS V14.00,2013-04-10 03:00:00,
2013-04-09 23:04:00,64.6,52.2,29.35,ESE,121,14.0,19.0,64,0.00,,,0.00,VWS V14.00,2013-04-10 03:04:00,
2013-04-09 23:09:00,64.4,52.0,29.35,East,89,10.0,12.0,64,0.00,,,0.00,VWS V14.00,2013-04-10 03:09:00,
2013-04-09 23:14:00,64.2,51.8,29.34,East,81,15.0,15.0,64,0.00,,,0.00,VWS V14.00,2013-04-10 03:14:00,
2013-04-09 23:19:00,64.3,51.9,29.34,East,97,12.0,15.0,64,0.00,,,0.00,VWS V14.00,2013-04-10 03:19:00,
2013-04-09 23:24:00,64.2,51.4,29.34,East,101,7.0,20.0,63,0.00,,,0.00,VWS V14.00,2013-04-10 03:24:00,
2013-04-09 23:29:00,64.3,51.5,29.34,ESE,108,21.0,21.0,63,0.00,,,0.00,VWS V14.00,2013-04-10 03:29:00,
2013-04-09 23:30:00,64.1,51.7,29.34,East,92,12.0,21.0,64,0.00,,,0.00,VWS V14.00,2013-04-10 03:30:00,
2013-04-09 23:35:00,64.1,51.7,29.34,ESE,115,11.0,21.0,64,0.00,,,0.00,VWS V14.00,2013-04-10 03:35:00,
2013-04-09 23:40:00,63.9,51.5,29.34,East,97,13.0,16.0,64,0.00,,,0.00,VWS V14.00,2013-04-10 03:40:00,
2013-04-09 23:45:00,63.7,51.3,29.34,ENE,77,9.0,16.0,64,0.00,,,0.00,VWS V14.00,2013-04-10 03:45:00,
2013-04-09 23:50:00,63.7,51.3,29.34,NE,49,11.0,20.0,64,0.00,,,0.00,VWS V14.00,2013-04-10 03:50:00,
2013-04-09 23:55:00,63.5,51.1,29.34,ESE,107,11.0,20.0,64,0.00,,,0.00,VWS V14.00,2013-04-10 03:55:00,